Terminal Aerodrome Forecast
Issued by NWS

Home | Current Version | Previous Version | Text Only | Print | Product List | Glossary On
Versions: 1 2 3 4 5 6 7 8 9 10 11 12 13 14 15 16 17 18 19 20 21 22 23 24 25 26 27 28
000
FTUS43 KGLD 271120
TAFMCK
TAF
KMCK 271120Z 2712/2812 14005KT P6SM SCT070
     FM271500 19010KT P6SM SCT070 SCT150
     FM280400 28006KT P6SM FEW150=

USA.gov is the U.S. government's official web portal to all federal, state and local government web resources and services.